Theta_e
343 343 342 341 343 343 344 344 342 341 343 345 345 345 344 344 343 343 344 345 345 345 345 345 345 345 344 342 342 343 342 341 339 332 325 323 329 338 342 343 344 344 343 343 342 343 343 343 342 341 341 340 340 339 338 338 338 338 337 337 337 336 335 337 340 342 343 342 342 342 341 340 339 339 339 339 339 339 338 337 337 338 339 340 339
343 343 342 342 343 343 343 343 342 342 343 344 344 343 343 343 343 344 343 343 343 344 344 344 344 344 343 342 342 343 343 343 339 333 328 330 337 342 344 344 343 343 343 343 343 343 343 342 340 339 339 339 339 338 339 339 339 339 336 334 335 336 336 337 338 339 340 340 341 341 340 338 337 336 335 334 334 337 337 337 339 339 339 339 339
342 342 341 342 343 342 342 342 341 342 343 343 343 343 344 344 344 344 344 343 342 343 343 344 344 343 343 343 343 343 344 343 339 336 335 337 341 344 345 345 344 343 343 343 343 343 342 341 340 340 340 341 341 341 341 342 342 340 337 334 332 333 334 335 337 337 337 338 339 339 339 337 336 332 326 324 326 331 335 336 338 339 339 338 337
341 341 340 341 342 342 341 341 342 343 343 343 342 343 344 344 344 344 344 343 341 342 342 343 343 344 344 343 342 344 344 343 340 337 337 340 343 344 345 344 344 343 343 343 343 343 342 341 342 342 341 342 342 343 343 342 342 340 338 336 333 332 333 335 336 337 337 337 338 339 339 340 340 337 329 322 320 324 329 332 334 335 335 334 335
342 340 341 341 341 341 341 341 343 344 343 343 343 345 345 344 344 345 344 343 341 342 342 343 344 344 345 343 343 343 344 344 341 338 339 342 344 344 344 344 344 343 343 344 343 343 342 341 342 343 342 342 342 342 342 342 342 340 339 338 336 335 336 337 338 338 338 338 339 340 342 343 343 344 340 330 322 320 322 325 327 328 329 329 331
341 341 341 342 341 342 342 342 343 343 343 343 344 344 345 345 344 345 344 342 341 342 342 343 344 344 344 344 344 343 343 344 343 340 340 343 344 344 344 344 344 343 345 345 343 342 341 341 343 344 343 343 342 341 342 342 343 341 339 338 336 337 337 337 337 338 338 339 340 341 342 343 344 345 344 340 331 323 320 320 321 322 323 327 332
340 341 342 341 342 342 343 343 342 341 341 342 342 342 344 344 344 344 344 343 342 342 343 344 344 345 344 344 344 343 343 344 343 341 340 342 344 344 344 344 343 344 345 344 342 341 340 341 343 343 343 343 342 341 341 341 341 339 336 335 335 336 335 335 335 335 337 339 340 341 342 343 344 345 345 344 340 331 324 321 319 319 319 324 332
339 341 342 341 341 342 343 343 342 341 340 341 339 339 341 341 342 343 344 344 344 343 344 345 345 345 344 344 344 343 343 343 343 342 340 341 343 344 345 344 344 344 343 343 341 340 340 342 343 343 342 342 342 342 342 341 339 337 334 333 333 333 332 332 333 333 334 336 338 340 342 343 344 345 345 345 344 340 333 328 322 319 318 321 326
339 340 340 340 341 341 341 340 339 339 340 339 338 339 338 338 339 341 343 343 345 344 344 345 345 345 344 345 344 342 342 343 343 342 339 339 342 344 345 345 345 344 343 342 341 340 341 342 342 342 343 343 343 342 342 342 341 336 333 333 332 331 330 330 331 331 332 333 336 338 339 340 342 344 345 344 345 343 341 337 332 323 319 319 321
338 338 339 337 337 339 339 339 338 338 339 340 340 340 340 339 338 340 341 343 344 344 344 343 344 344 344 344 343 342 343 343 343 343 340 339 341 342 345 344 344 344 343 342 341 341 341 342 342 342 342 343 343 342 342 343 342 339 334 333 332 330 328 328 328 329 330 331 332 334 335 336 338 342 344 344 344 344 343 342 340 333 326 321 319
337 338 337 334 335 339 342 342 342 342 340 340 341 341 342 342 341 341 341 343 343 342 344 344 343 343 343 343 341 341 342 342 343 343 339 337 340 342 344 343 343 343 343 343 342 342 340 341 341 341 342 343 343 341 342 342 343 341 336 333 333 332 329 328 328 327 327 329 329 330 332 332 333 338 341 342 342 343 343 342 342 342 337 330 324
338 336 334 333 337 342 344 344 344 344 341 340 340 340 342 342 343 343 343 344 343 343 344 343 344 343 344 343 341 341 342 342 343 341 337 337 341 343 344 343 344 343 343 343 341 341 340 340 340 341 341 342 341 339 338 339 343 341 334 334 335 333 331 329 328 328 328 328 329 329 330 330 330 332 337 338 340 341 341 342 342 342 343 340 336
336 334 332 334 339 343 342 343 344 344 342 341 340 340 341 342 343 343 344 344 343 344 344 343 344 344 343 343 342 342 342 342 342 339 337 339 342 343 344 343 344 344 343 342 341 340 339 338 339 340 340 341 339 337 335 336 340 338 334 336 338 336 334 332 330 328 329 329 330 330 331 331 329 329 331 334 337 339 340 340 341 341 342 342 342
331 330 333 337 341 342 340 342 342 342 342 342 342 342 341 343 343 341 343 343 343 344 344 343 343 343 343 343 342 342 343 343 340 338 339 341 343 344 344 344 345 345 344 342 340 339 337 336 337 338 339 339 337 336 335 335 339 338 338 339 340 340 338 337 333 329 328 329 329 330 330 330 329 328 328 329 332 335 337 337 337 339 341 342 342
328 330 336 339 341 342 342 341 342 342 342 342 343 342 342 343 342 340 342 342 343 343 343 344 343 342 342 343 342 342 343 343 339 339 341 342 343 344 344 345 345 345 343 341 339 336 335 335 336 337 338 337 336 336 336 337 340 341 341 340 340 340 339 338 335 330 328 327 327 326 326 326 325 326 325 326 328 329 331 331 331 334 337 340 341
328 332 337 340 341 343 343 342 342 342 343 343 343 343 342 342 341 341 340 341 343 343 343 344 344 343 343 342 342 343 343 342 340 339 342 343 343 344 344 345 345 344 342 339 336 334 334 334 333 334 336 336 337 338 339 340 342 342 342 341 340 340 339 338 334 330 326 325 324 323 322 323 322 323 323 324 326 326 328 327 327 328 331 336 338
330 334 336 339 342 343 343 342 342 343 343 343 343 343 343 342 342 342 341 341 342 343 343 344 345 343 343 343 342 342 342 342 340 340 342 343 344 344 344 344 343 343 339 334 332 332 332 331 330 332 335 336 338 341 342 343 343 343 342 341 340 339 338 337 332 328 325 323 322 322 323 324 324 325 326 327 327 328 330 329 327 326 327 330 331
332 336 338 340 342 343 343 343 343 343 343 343 343 343 343 343 342 343 342 341 342 344 343 343 345 343 343 344 342 341 341 341 340 340 342 342 343 342 341 341 342 341 334 328 328 328 328 327 329 331 336 339 342 343 343 343 343 343 342 341 340 339 338 335 330 326 325 323 324 325 327 328 330 331 332 332 333 333 334 335 334 332 330 330 329
337 339 339 342 343 343 344 344 344 344 343 343 343 343 344 343 342 343 343 342 342 344 342 341 343 343 344 344 342 342 342 342 341 341 341 341 342 341 340 338 338 335 328 325 325 325 326 328 331 336 340 342 344 344 343 343 343 343 342 340 340 339 338 334 328 325 324 325 328 331 333 334 336 337 338 339 339 339 340 341 341 339 337 336 336
340 341 341 343 343 344 344 344 344 344 344 343 343 343 344 343 343 343 342 343 343 341 341 342 343 342 343 343 342 343 342 341 340 340 341 341 341 339 336 332 330 328 324 324 325 326 329 332 337 341 343 344 344 344 344 344 344 344 343 340 340 340 339 333 325 324 326 329 334 336 337 339 340 341 342 343 343 344 344 344 343 341 340 341 342
342 342 342 343 343 343 343 342 343 343 343 343 343 343 343 344 344 342 342 344 343 340 341 343 343 343 343 343 343 343 343 341 340 341 341 340 337 333 329 326 326 325 325 325 327 331 334 338 341 343 343 344 344 344 344 344 344 344 343 342 340 339 337 331 325 327 331 334 338 339 341 341 341 342 342 343 343 344 344 344 343 342 342 344 344
343 343 343 343 342 342 341 341 341 340 341 342 342 342 343 344 344 342 343 344 343 342 343 344 342 343 344 343 343 342 342 340 339 341 340 336 333 330 327 327 327 326 326 328 332 336 339 341 343 343 344 344 344 344 344 344 344 344 343 342 341 338 334 328 328 332 336 338 340 341 341 341 340 340 340 341 341 342 343 343 342 342 342 343 344
343 342 342 341 341 340 340 340 339 339 339 341 341 342 343 344 343 342 343 343 343 341 342 344 342 342 343 343 343 342 341 340 340 340 337 336 334 332 330 330 328 327 329 333 335 338 341 342 342 343 343 343 344 344 344 344 344 343 342 341 340 336 331 331 335 337 337 339 340 340 340 339 338 337 337 338 338 340 341 342 341 342 341 336 338
342 341 340 340 340 340 339 339 339 340 340 341 342 343 344 344 342 342 343 343 343 342 342 344 343 341 343 342 342 342 341 340 340 339 336 336 335 333 332 330 329 331 335 337 339 340 341 342 343 343 343 344 344 344 344 343 342 341 340 339 337 334 334 336 338 337 338 339 340 340 340 339 338 337 337 337 337 338 339 340 340 343 343 334 330
341 339 339 339 339 339 340 340 341 341 342 343 343 343 343 343 342 341 343 343 343 343 343 344 343 343 343 341 342 342 340 340 340 338 335 334 334 333 331 331 332 336 339 341 342 343 343 343 344 344 343 342 342 343 343 341 340 340 340 337 337 338 341 341 338 337 339 340 342 342 342 341 341 340 339 339 338 339 338 340 340 341 342 339 332
340 339 339 340 340 340 341 342 342 343 344 344 344 343 343 343 342 342 342 343 343 343 343 343 343 343 342 342 342 341 339 340 340 336 334 333 333 331 332 334 336 339 341 342 343 344 344 345 344 343 343 341 340 341 341 341 340 339 338 336 339 342 343 344 343 342 342 343 344 344 343 343 343 342 342 341 341 340 339 340 341 341 341 343 340
340 339 340 340 339 341 342 342 342 343 344 344 343 344 343 342 343 342 342 343 343 343 343 343 343 342 342 342 341 340 339 340 338 337 335 333 332 331 335 340 341 342 342 343 344 344 344 344 344 343 342 341 340 340 341 341 340 340 336 335 340 342 343 345 344 345 346 346 346 346 345 345 345 344 343 342 342 342 341 339 339 339 339 340 339
341 340 340 339 339 342 342 340 342 343 343 343 343 343 343 343 343 342 342 343 342 342 343 342 342 342 341 341 340 339 340 340 338 337 335 332 331 332 337 342 343 344 343 344 343 343 343 343 343 342 342 341 341 341 341 341 342 341 337 334 338 341 344 344 344 344 346 347 348 348 347 346 345 345 344 343 342 342 342 340 338 337 337 336 335
340 339 339 338 339 342 341 341 341 342 342 343 343 342 341 342 342 342 342 342 342 341 342 341 341 341 340 339 339 340 340 339 337 336 335 333 333 336 341 343 343 343 343 343 343 343 343 343 342 342 342 342 342 341 342 342 343 343 341 338 339 341 344 345 344 344 344 346 347 347 346 345 344 345 345 343 342 341 341 341 340 338 336 336 335
339 339 338 337 338 340 341 341 342 342 342 342 342 341 340 341 341 341 341 341 341 340 340 340 340 339 339 339 340 340 339 338 337 337 336 335 336 340 344 344 344 343 343 343 343 343 343 342 342 342 342 342 342 342 341 342 342 343 344 343 343 342 343 345 345 344 344 344 345 345 343 343 343 344 345 343 342 340 340 340 340 339 336 335 334
339 338 337 338 338 339 339 341 343 342 341 341 341 340 340 340 340 340 340 340 339 339 340 339 339 339 339 340 340 339 337 337 337 336 337 337 340 343 344 344 344 343 343 343 343 343 343 342 342 342 342 342 341 341 340 341 342 342 343 343 343 343 343 343 345 345 344 344 344 345 342 340 342 343 344 343 341 339 339 338 339 339 337 334 333
339 338 337 339 338 338 339 340 342 342 341 340 340 340 340 340 339 339 339 339 339 339 339 339 339 340 340 339 338 337 336 337 336 337 338 340 341 342 343 343 343 344 343 343 343 343 343 342 343 342 342 341 341 341 341 340 341 342 343 343 343 343 342 342 343 345 345 344 344 345 343 339 339 342 342 341 340 339 337 337 337 338 339 337 335
339 338 338 340 340 337 337 339 340 341 341 341 340 340 339 339 338 338 338 338 338 338 338 339 339 339 338 337 337 336 337 336 336 336 338 340 341 341 341 341 342 344 344 343 343 342 343 343 342 342 341 341 342 342 342 340 340 342 343 343 343 342 342 341 342 343 345 344 343 345 343 340 339 340 340 340 339 339 338 337 338 338 339 340 339
339 339 340 341 340 337 337 338 339 340 341 341 340 339 339 338 337 337 338 337 337 338 337 338 338 337 337 336 336 336 336 336 336 337 339 340 341 342 342 343 343 343 344 343 342 342 342 342 342 341 341 342 343 343 342 341 341 342 343 343 342 342 341 341 341 343 344 343 342 344 343 341 341 339 338 339 339 340 340 340 341 341 342 343 343
339 339 341 342 341 338 337 338 338 339 340 340 339 338 337 336 336 337 337 337 337 337 337 337 337 337 336 336 335 336 335 336 337 338 340 341 342 343 343 344 344 344 344 343 342 341 341 341 341 341 341 342 344 344 342 340 341 342 342 341 341 341 341 341 341 342 343 343 342 342 342 342 342 340 338 338 339 340 341 342 343 344 344 345 346
340 341 342 342 342 339 337 338 338 339 339 338 338 336 335 335 335 336 336 336 336 336 336 336 336 336 336 336 336 336 336 336 338 339 340 341 342 343 344 344 344 344 344 343 342 341 340 341 340 341 342 343 344 344 342 342 341 341 341 341 341 341 341 341 341 342 342 342 342 342 342 342 343 341 338 338 340 341 342 342 343 344 344 345 347
341 342 342 342 342 339 337 338 338 339 338 337 335 335 335 335 335 336 336 336 336 335 336 335 336 336 336 336 338 339 339 340 340 340 341 342 344 345 345 343 343 344 344 344 343 342 340 340 340 341 342 343 344 343 342 341 341 340 341 342 342 341 341 340 340 341 342 342 342 342 343 343 343 340 338 340 341 340 341 341 342 343 345 345 346
342 342 342 342 342 340 338 337 339 340 338 336 336 336 337 336 337 337 338 337 337 336 335 335 336 337 338 339 341 342 342 343 343 342 343 343 344 344 343 342 343 344 345 344 344 343 341 340 340 341 342 344 344 343 342 341 341 341 341 342 342 341 341 340 340 341 342 342 343 343 343 342 341 339 338 339 339 340 340 340 341 343 344 345 346
343 343 342 341 341 341 339 338 338 339 339 338 337 338 339 338 338 338 339 339 337 337 336 336 337 338 341 342 343 343 343 344 344 345 345 344 343 342 342 342 343 344 344 344 344 344 342 340 340 341 343 345 344 343 342 340 340 341 341 341 340 341 341 341 341 340 341 342 342 342 343 343 341 339 339 339 338 339 340 340 342 342 343 344 345
344 343 342 342 341 341 340 339 338 338 339 339 339 340 341 340 339 339 339 339 338 337 337 337 339 341 343 344 344 344 344 345 345 346 345 343 342 341 341 342 344 346 346 344 344 344 343 340 341 342 343 344 344 343 342 339 339 340 340 339 339 340 341 340 340 340 341 341 341 342 342 343 342 341 340 339 340 341 341 341 342 342 343 343 344
344 343 343 342 341 341 340 340 338 338 338 338 339 339 340 341 340 340 339 339 339 339 339 340 341 342 343 344 345 344 344 345 347 347 346 344 342 342 342 343 345 346 346 345 344 345 344 342 342 342 343 344 343 343 341 340 340 340 339 338 338 339 339 340 340 340 341 341 341 342 342 343 343 343 343 342 342 343 343 342 343 343 343 343 343
343 343 343 342 341 340 340 340 339 338 338 338 338 338 339 340 341 341 340 340 340 341 341 341 341 342 343 344 344 344 344 345 346 347 345 344 343 343 343 344 345 345 344 345 344 344 344 344 343 343 343 343 343 343 341 340 340 339 338 338 337 338 339 339 340 340 340 341 341 342 342 343 343 343 343 343 343 343 344 343 343 343 344 344 343
344 343 343 342 341 340 339 340 339 339 338 339 339 339 340 340 340 341 340 340 340 341 341 341 341 341 342 343 343 343 343 345 346 346 345 344 344 344 344 345 346 346 345 345 344 343 343 343 343 344 344 343 343 342 342 341 340 338 340 339 338 338 339 340 340 340 339 340 340 341 341 343 343 343 343 344 343 343 343 344 344 343 344 345 344
346 344 343 343 341 340 339 340 339 339 339 340 341 341 340 340 340 339 339 338 339 340 340 341 341 341 342 342 342 342 343 344 345 346 346 346 344 343 343 343 345 346 344 343 345 343 343 344 344 344 344 344 344 343 343 343 340 339 340 340 339 339 340 340 340 341 341 340 340 341 340 341 342 342 342 343 343 343 343 343 344 344 344 345 345
347 344 343 343 341 340 340 340 339 339 340 342 342 341 340 339 340 339 339 338 338 339 339 340 340 340 340 340 340 341 343 344 345 345 346 346 345 343 342 342 343 344 342 342 345 344 344 345 344 344 345 345 345 344 344 343 341 340 342 342 341 341 341 341 341 341 340 340 339 340 340 341 341 341 340 341 341 342 341 342 344 344 344 345 345
347 345 344 342 341 341 340 341 340 340 341 342 342 342 339 338 340 340 339 339 339 339 338 338 337 337 337 338 339 341 343 343 343 344 345 345 344 342 343 342 342 342 341 343 346 346 345 344 344 344 345 346 345 346 345 344 344 343 343 342 341 342 342 340 340 340 339 338 339 339 340 340 340 340 339 339 341 341 341 341 343 344 344 344 345
346 346 345 343 342 342 342 341 342 342 341 341 343 343 339 337 340 341 341 340 339 339 339 339 338 337 337 337 339 339 341 341 342 343 344 344 343 342 343 343 342 341 341 345 347 346 345 345 344 345 346 346 346 346 346 346 345 344 343 342 342 342 341 339 339 338 338 338 338 339 339 339 339 339 339 339 340 340 340 341 342 343 344 344 345
346 347 346 345 343 343 342 342 342 343 343 342 344 343 339 338 341 343 343 343 342 341 341 341 342 341 338 338 339 339 339 340 340 342 343 344 343 342 342 343 341 341 342 346 348 346 345 345 345 345 346 347 347 346 346 346 346 345 344 343 342 342 341 340 340 339 337 337 338 338 338 338 339 338 339 339 340 340 340 340 341 342 343 344 346
346 346 346 345 345 344 344 343 343 344 344 344 345 343 339 340 343 344 344 344 344 344 343 343 344 344 341 339 340 339 339 340 340 341 342 343 343 342 342 343 342 341 343 347 348 347 346 345 345 345 345 346 347 346 346 346 346 345 344 343 343 342 342 342 341 340 339 338 339 338 338 339 338 339 340 340 340 340 340 340 341 342 343 344 345
345 346 346 346 346 345 344 343 343 343 344 343 344 343 341 341 343 345 345 345 346 346 345 345 345 344 342 340 340 340 340 339 340 340 341 342 343 343 342 342 343 342 344 347 348 348 347 346 344 344 344 345 346 347 347 346 345 345 344 344 344 343 342 342 342 342 342 341 341 340 338 340 340 340 341 341 341 341 341 341 341 343 344 344 344
346 346 347 346 346 345 344 343 343 343 344 344 343 343 343 343 344 345 345 345 346 346 346 346 346 344 341 340 341 341 340 340 340 340 341 342 343 343 342 342 343 343 344 346 348 348 348 347 343 342 343 343 345 346 347 347 346 345 344 344 344 343 342 342 341 342 343 343 342 340 339 340 341 341 342 341 341 342 342 342 343 344 345 345 344
Wind_Speed
18 18 17 15 13 12 11 11 10 10 8 7 7 9 11 12 13 14 14 14 15 14 14 13 13 13 12 12 12 12 13 12 12 12 13 15 17 17 15 15 16 15 15 14 14 14 15 16 17 17 16 16 15 14 14 13 12 12 12 12 12 13 13 13 12 12 12 12 11 11 11 10 9 9 8 8 8 7 6 5 5 5 6 7 6
19 18 16 15 13 12 11 10 10 9 8 7 8 9 10 11 11 11 12 12 13 14 13 13 12 12 11 11 12 12 13 14 14 15 16 17 17 16 15 15 16 15 14 14 14 15 16 16 16 16 15 15 14 14 13 13 13 13 13 12 12 12 12 13 12 11 11 10 10 10 10 10 9 8 7 7 6 6 5 5 5 5 6 6 5
18 18 16 15 13 12 12 11 10 9 8 8 8 9 10 10 10 10 11 10 11 13 13 12 12 11 11 11 12 12 13 14 15 15 17 17 16 15 15 15 15 15 14 14 14 15 16 16 15 15 14 14 13 13 13 13 13 13 13 13 12 12 12 12 12 11 10 10 10 10 10 10 10 10 9 8 7 6 5 5 5 5 5 5 5
18 17 17 15 14 13 12 12 10 9 9 8 8 9 10 10 9 10 10 9 10 12 12 12 12 12 11 11 11 11 12 14 16 16 17 16 14 14 15 15 15 15 15 14 14 15 15 15 14 13 13 13 13 12 12 12 12 12 13 12 12 12 12 12 12 11 11 10 10 10 10 10 11 11 11 11 10 7 6 5 4 4 3 4 4
18 18 18 16 15 14 13 12 11 10 9 9 9 9 9 9 9 10 10 9 10 12 11 12 12 12 12 11 11 11 11 13 16 16 16 15 14 14 15 15 15 15 14 14 14 14 14 13 13 13 13 13 13 12 11 11 11 12 12 11 11 11 11 11 11 11 11 10 10 10 9 10 10 10 11 11 11 10 8 6 5 4 3 4 4
19 19 19 17 16 14 14 13 11 11 10 10 9 9 9 8 9 9 10 10 11 11 11 12 11 12 11 11 11 11 11 12 14 15 15 14 13 14 14 15 14 14 14 14 14 14 14 12 12 12 13 13 13 13 13 12 11 11 11 10 10 11 11 11 11 10 10 10 9 9 9 9 9 9 10 11 12 12 11 9 7 6 6 5 5
20 20 18 17 16 15 14 12 11 11 10 9 9 9 9 9 8 8 9 10 11 11 11 11 11 11 11 11 11 11 11 12 13 14 14 13 13 13 14 14 13 13 13 13 13 12 12 11 11 12 12 13 13 13 13 12 11 11 10 10 10 11 11 11 11 11 10 9 9 9 9 9 8 8 8 9 11 12 11 10 9 7 7 6 5
19 18 17 17 15 14 13 12 11 9 8 8 8 8 7 8 9 8 9 9 10 10 11 11 10 10 11 11 11 10 10 11 12 13 13 12 12 12 13 13 12 13 13 13 13 12 11 11 12 12 12 12 12 12 12 12 12 12 11 11 12 11 11 11 11 11 10 9 9 9 9 8 8 7 7 8 9 10 10 10 9 7 7 6 5
17 15 16 15 15 14 12 11 10 8 7 6 6 6 6 7 9 8 8 8 9 10 10 10 10 10 10 11 11 11 10 10 11 12 11 12 12 12 13 12 12 12 13 13 13 11 11 11 11 11 11 11 11 11 11 11 12 13 12 12 12 12 12 12 11 11 10 10 9 8 8 7 7 7 7 8 8 8 9 9 9 8 7 7 6
17 15 14 13 14 13 11 10 9 8 7 7 6 6 6 6 8 8 8 8 9 9 9 9 9 10 10 10 10 11 10 10 10 11 11 11 11 11 12 12 12 12 12 12 12 11 10 10 10 10 10 10 11 11 10 11 11 13 13 13 13 13 14 14 13 12 11 10 9 8 8 7 6 6 7 7 7 6 7 8 8 7 7 7 7
16 15 14 12 12 11 10 9 9 9 7 7 7 7 7 7 7 7 9 9 8 9 9 9 9 9 10 10 10 11 10 9 10 10 10 11 12 11 11 12 12 11 12 12 11 11 10 10 9 9 9 10 11 10 10 10 10 12 14 14 14 16 16 16 15 13 12 11 10 9 8 7 6 6 6 6 6 6 6 7 7 7 7 7 7
15 15 13 12 11 10 10 9 9 8 7 7 7 8 8 8 7 7 8 8 8 9 9 9 9 9 10 10 10 11 11 10 9 9 11 13 12 10 11 12 12 11 11 11 10 10 9 9 8 8 8 9 10 10 10 9 10 12 14 15 16 17 18 18 16 14 13 11 10 9 8 7 7 6 5 4 5 6 6 6 6 6 6 6 6
15 14 13 12 11 9 10 10 9 7 7 7 7 8 8 8 8 8 7 8 9 9 9 9 9 10 10 10 10 10 11 10 10 11 13 14 12 10 11 12 11 11 10 10 10 9 9 8 8 7 8 9 10 11 10 9 10 13 14 16 17 18 18 18 17 15 13 11 10 9 8 8 7 6 5 4 4 4 5 5 5 6 5 5 5
14 14 12 11 10 8 8 9 8 7 7 7 7 8 8 7 7 7 7 8 9 9 9 10 10 10 11 11 11 11 11 11 11 13 14 14 11 10 11 11 11 10 10 10 9 9 9 8 7 7 7 8 10 11 10 10 12 13 14 16 16 16 17 17 18 16 14 12 10 9 9 9 8 7 5 4 3 2 2 3 3 4 4 4 4
13 12 11 10 10 9 8 7 7 7 7 7 7 7 6 6 7 8 8 9 9 9 10 11 11 11 11 11 12 12 12 12 12 14 14 12 11 10 11 10 10 9 9 9 9 9 8 8 7 7 8 9 11 11 10 11 13 14 15 15 15 15 16 17 17 17 15 12 11 10 10 10 9 8 7 5 3 1 0 1 2 2 2 3 3
12 11 11 11 10 10 9 8 8 8 8 8 8 7 7 7 9 10 10 10 10 10 10 11 11 12 12 11 12 12 12 12 13 14 13 12 10 10 10 10 9 9 9 9 9 8 8 7 6 6 8 9 10 11 10 11 12 14 15 15 15 15 16 16 17 16 15 13 12 12 12 11 10 10 9 7 5 3 2 2 2 2 2 2 3
12 11 11 11 11 10 9 9 8 8 8 8 8 7 8 9 10 10 11 11 11 11 10 11 10 12 12 11 12 12 12 13 13 14 12 11 10 9 9 9 8 8 9 9 9 8 8 7 6 7 9 10 11 11 11 11 11 13 14 15 16 16 16 16 16 16 15 13 13 13 12 12 11 11 11 11 10 9 6 5 4 3 2 2 3
12 12 11 11 10 9 9 8 7 7 8 7 7 8 8 9 9 9 11 12 12 11 10 10 10 11 12 12 12 12 13 13 13 13 12 11 9 8 8 8 8 8 8 9 8 8 8 7 8 9 10 11 11 11 12 11 11 12 14 15 16 16 16 16 15 15 14 13 13 13 12 12 12 13 13 13 14 13 11 9 8 7 5 4 3
12 11 11 10 8 7 8 7 7 7 7 8 8 8 8 9 9 9 10 11 11 10 10 10 10 11 12 12 11 12 13 13 12 12 11 10 9 8 7 7 8 8 9 9 9 10 10 10 10 11 11 11 11 11 11 11 11 12 13 14 15 15 16 16 15 14 14 14 13 13 12 12 13 14 14 15 15 14 13 11 10 10 9 8 7
11 10 9 8 7 6 6 6 7 7 7 7 7 8 8 9 9 10 10 10 10 10 11 11 11 12 12 12 12 13 13 13 13 12 12 10 8 7 8 9 10 10 11 11 12 12 12 12 12 12 12 11 10 10 10 10 11 11 12 13 14 14 14 14 14 13 14 14 13 13 13 13 14 15 14 15 15 15 14 13 12 10 8 8 7
9 8 7 6 6 6 6 6 6 6 6 5 5 7 8 9 9 10 11 10 10 11 12 13 13 13 13 13 13 14 14 14 14 13 12 10 9 9 11 12 13 13 13 14 14 14 14 14 14 13 12 11 9 9 8 9 9 10 11 12 13 13 13 13 13 14 14 14 13 13 14 14 15 15 15 15 15 14 14 13 13 11 8 7 6
8 8 7 7 6 7 8 7 7 7 6 5 5 7 7 8 9 10 12 12 11 12 12 14 16 14 14 14 14 15 15 15 14 13 12 11 11 13 15 15 15 15 15 16 15 15 15 14 14 12 10 9 8 7 7 7 8 8 9 10 11 12 12 12 13 14 15 13 12 13 14 15 16 16 16 15 15 14 13 13 14 12 9 9 6
9 10 9 8 8 8 8 7 7 7 7 6 7 7 6 7 8 9 11 12 12 12 12 13 16 15 14 14 15 16 16 16 14 13 13 12 13 14 16 16 16 16 16 16 15 15 14 13 12 10 8 7 6 6 6 6 6 7 8 9 10 11 12 13 14 15 15 13 13 15 16 16 17 17 17 16 16 14 13 13 14 14 11 12 10
10 10 9 9 9 9 8 7 7 7 7 7 7 7 6 7 7 8 10 12 12 13 13 13 15 15 15 15 16 16 16 16 15 14 14 14 15 16 16 17 17 17 17 16 15 14 13 11 10 8 7 5 4 4 4 4 5 6 8 9 10 12 14 15 15 16 16 15 15 16 17 17 18 18 17 17 17 15 14 13 14 14 12 13 15
10 10 10 10 10 9 8 8 8 8 8 8 8 7 7 8 8 9 11 12 13 14 14 14 15 16 15 16 16 16 16 16 15 14 15 16 17 17 17 18 17 17 17 15 14 13 11 9 8 7 5 4 4 3 3 4 5 6 7 9 12 15 16 17 18 18 17 17 17 18 18 18 19 19 19 19 18 17 16 13 14 15 12 9 14
10 10 10 10 10 10 9 9 9 9 9 8 9 8 8 9 9 10 11 13 14 14 14 15 16 17 17 16 17 17 16 16 15 15 15 17 18 18 19 18 17 16 15 14 12 10 9 7 7 6 5 4 4 4 5 6 7 7 8 10 15 17 17 18 19 19 19 18 19 19 20 20 20 20 20 21 20 20 19 16 15 15 12 7 7
10 10 10 10 11 10 9 8 9 11 10 9 10 10 10 10 11 10 11 13 14 14 15 16 17 17 17 17 17 17 16 15 16 16 16 17 18 19 19 17 15 14 13 12 10 8 7 6 6 6 5 5 5 6 7 8 9 9 9 11 14 15 15 16 17 18 18 18 19 20 20 21 21 22 21 22 22 22 22 21 19 16 14 11 7
9 10 10 10 10 9 9 9 10 11 11 11 11 12 13 13 12 12 13 14 15 15 15 16 17 17 17 16 16 16 15 15 16 16 17 18 19 19 17 15 13 13 12 11 8 7 6 5 5 5 5 5 5 6 6 7 8 9 9 9 11 12 13 14 15 16 16 16 17 19 19 20 21 21 22 22 22 23 23 23 22 20 19 17 14
10 11 10 9 9 9 10 10 11 12 13 13 13 13 13 14 14 14 15 15 15 16 16 17 17 17 16 16 16 15 15 15 16 16 17 18 18 17 15 13 13 12 11 9 8 6 5 5 5 4 4 4 5 5 5 5 6 7 7 8 9 10 12 13 14 14 14 14 16 17 18 18 19 20 21 22 22 23 23 24 23 22 22 21 19
10 10 10 10 9 10 11 11 12 13 13 13 13 13 14 14 15 15 15 15 16 16 16 17 16 16 16 16 16 15 15 16 16 16 16 17 16 15 14 13 12 11 10 9 7 6 5 5 4 4 3 3 4 5 4 4 4 4 5 7 8 10 11 12 13 13 13 13 14 15 16 17 17 19 20 21 22 22 23 24 24 23 23 23 22
11 11 11 10 10 11 11 12 12 12 13 13 13 14 14 15 15 15 15 15 16 15 16 17 17 17 16 16 16 16 16 16 16 15 16 16 15 14 13 12 10 10 9 8 6 5 5 5 4 3 2 3 4 5 4 4 3 4 5 6 8 9 10 11 13 13 13 13 13 14 15 15 16 17 19 19 20 22 23 24 24 24 24 24 23
11 12 11 10 10 10 11 12 12 13 14 13 13 14 14 15 15 16 16 16 15 15 16 17 17 17 16 16 16 16 16 16 16 15 15 15 14 13 12 11 9 9 8 7 5 5 5 4 3 2 2 2 4 5 5 4 3 5 6 7 8 8 9 10 10 11 12 12 12 12 13 14 15 16 17 18 19 21 23 24 25 25 25 25 25
11 12 11 11 10 10 11 12 13 14 14 14 14 14 15 15 16 17 17 17 16 16 17 17 17 16 16 16 16 17 16 15 15 15 14 13 12 11 11 10 9 8 7 6 6 5 5 4 2 1 1 2 4 5 4 3 3 4 6 7 8 9 9 9 9 9 10 11 11 11 11 12 13 14 15 16 18 20 22 23 25 26 26 27 26
12 13 12 11 10 10 11 12 13 14 14 15 14 14 15 16 17 17 18 18 18 17 18 18 18 18 17 17 17 16 15 15 15 14 13 12 11 10 9 8 8 7 7 7 7 6 6 4 3 1 0 2 4 5 4 2 2 3 5 7 8 9 9 9 9 9 9 10 11 10 10 10 11 12 14 15 18 20 22 23 24 25 26 27 27
13 13 12 11 11 11 11 12 14 14 15 15 15 15 16 17 18 18 19 19 19 18 18 19 19 18 17 17 16 15 15 15 15 14 13 11 10 9 8 7 7 7 6 6 7 7 7 6 4 2 1 2 4 5 3 1 2 2 4 6 8 9 9 9 9 9 9 10 11 11 10 10 10 11 12 14 17 19 20 21 22 23 24 25 26
14 13 13 13 13 12 11 13 14 15 16 16 16 17 17 18 18 19 19 19 19 18 18 19 19 18 17 16 16 15 15 15 14 13 11 10 9 8 7 7 7 6 6 5 6 7 7 7 5 3 1 2 3 3 2 0 1 2 3 5 7 9 9 8 8 9 9 10 10 11 11 11 10 10 11 13 16 17 18 19 20 21 22 23 24
13 14 13 13 14 14 13 13 15 15 16 17 18 19 18 18 18 18 18 18 17 17 17 18 17 16 16 16 15 15 14 13 12 11 10 9 8 7 6 6 6 5 4 4 4 5 6 7 6 4 2 2 2 2 2 1 1 2 3 5 6 7 7 7 7 8 8 9 10 10 11 11 11 10 11 12 14 15 15 17 18 20 21 21 22
13 14 14 13 14 15 15 14 15 16 17 18 19 19 18 18 18 17 17 17 17 17 17 17 16 15 15 15 15 14 13 12 11 10 9 8 7 6 6 6 5 4 3 2 2 3 5 7 7 5 3 2 2 2 3 2 1 2 2 4 5 6 6 6 6 7 7 8 9 9 10 11 11 10 10 11 12 13 14 15 17 18 19 20 21
15 15 14 13 15 16 16 16 16 17 18 18 18 18 18 17 17 17 17 17 17 17 17 17 16 15 15 15 14 13 12 10 9 8 7 7 6 6 6 5 5 3 2 1 2 3 5 7 7 5 3 3 2 3 4 2 2 2 0 2 3 4 4 5 4 5 6 6 7 8 9 10 11 10 9 10 11 13 13 14 16 17 18 19 20
16 16 15 15 16 17 18 17 17 17 19 20 19 19 18 17 17 17 17 17 16 17 16 16 15 14 14 13 12 11 11 9 8 7 6 6 6 6 6 6 5 3 2 1 2 3 4 7 7 5 3 3 3 4 3 3 3 2 1 1 2 1 1 2 3 3 4 5 5 6 7 9 10 10 10 10 11 12 13 14 15 17 18 18 18
17 17 17 16 17 18 19 19 18 19 20 21 21 20 18 18 17 16 16 16 16 15 15 14 13 13 12 11 10 10 10 9 8 6 6 6 6 6 6 6 4 2 1 2 2 2 4 6 6 5 3 3 3 3 2 3 4 2 1 3 3 3 2 0 1 2 3 4 4 5 5 6 7 8 9 9 10 11 13 14 15 16 18 18 18
19 19 18 17 18 19 19 20 20 19 20 20 20 20 18 17 16 16 15 15 15 14 13 13 12 12 11 10 10 10 9 9 8 7 6 6 6 6 6 5 3 1 1 2 2 2 3 4 5 5 4 4 3 2 0 2 3 3 2 2 2 3 3 2 1 1 2 3 4 4 4 5 6 6 7 8 9 10 11 13 14 15 17 18 17
20 20 19 18 19 20 19 20 21 21 20 20 19 18 17 16 15 14 14 14 14 13 12 11 11 12 11 10 10 10 9 8 8 7 6 5 5 5 6 4 3 2 2 2 3 3 3 4 5 4 3 4 3 2 1 1 2 3 1 2 1 1 2 2 2 2 1 1 1 2 2 3 5 6 5 5 7 8 10 12 13 14 15 17 17
22 22 21 20 21 21 20 20 21 21 21 20 17 16 17 16 15 14 14 13 13 13 12 12 12 12 11 11 10 9 8 7 7 6 5 5 5 5 5 5 4 3 2 3 4 3 3 5 5 3 2 2 2 2 2 3 1 1 1 2 1 2 3 3 3 4 3 3 2 1 1 3 4 5 5 5 5 7 9 10 12 13 14 16 17
23 23 23 22 22 22 21 20 21 21 21 20 17 16 17 18 17 16 15 14 14 14 14 14 13 12 12 11 9 9 8 8 7 6 5 5 5 5 5 5 5 4 3 4 4 4 4 5 4 3 1 1 1 1 2 3 1 0 2 1 1 2 3 4 5 5 5 6 4 3 2 3 3 4 6 6 5 6 8 9 10 12 13 14 16
22 23 23 23 23 22 22 21 21 21 21 20 18 17 18 19 19 18 18 17 16 16 16 15 13 12 11 10 9 9 9 8 7 7 6 5 6 6 5 5 5 5 4 5 5 5 5 5 4 3 2 1 2 2 2 2 2 2 3 2 1 2 2 3 4 4 5 5 3 3 3 3 2 4 6 7 6 5 7 8 9 10 12 13 14
22 22 23 23 23 23 22 22 21 21 21 20 20 18 19 20 19 18 17 17 17 16 15 13 12 11 11 11 10 9 10 9 8 8 7 6 6 6 6 6 6 5 5 5 5 5 5 5 5 4 2 2 3 1 1 2 2 2 3 2 1 2 2 1 2 3 5 3 2 2 2 2 2 4 6 6 5 5 6 8 8 9 10 12 12
22 22 23 23 23 23 22 22 21 21 21 20 21 21 21 20 19 18 17 16 15 14 13 12 11 11 11 12 11 11 10 10 9 8 8 7 7 7 7 7 6 6 6 6 5 5 6 5 5 5 3 2 2 2 2 2 1 1 2 2 2 2 2 2 2 2 3 2 1 2 1 1 3 3 4 5 5 5 6 7 8 8 9 10 10
23 22 23 22 22 22 22 22 22 21 21 21 21 21 22 21 19 18 17 15 13 11 11 12 12 12 12 13 13 12 11 10 10 9 8 8 8 8 8 7 6 6 6 6 5 5 6 6 6 6 4 3 2 2 2 2 2 1 1 1 1 2 3 3 3 2 2 1 2 2 1 1 2 2 3 5 5 4 5 6 6 6 8 8 8
24 23 22 22 21 21 21 22 22 22 22 21 21 21 22 21 20 18 17 15 13 12 12 12 12 13 13 14 14 13 12 11 10 10 9 9 9 9 9 8 7 7 7 6 6 6 6 6 6 6 5 4 3 2 2 2 2 1 1 1 1 1 2 2 2 2 2 1 2 2 3 2 2 2 4 5 4 4 4 4 3 3 5 6 6
26 25 24 22 22 21 21 21 21 22 22 22 22 22 22 22 21 19 17 16 15 14 14 14 14 14 14 15 15 14 13 12 11 11 10 10 9 10 10 9 8 8 7 7 6 6 6 6 6 6 6 6 5 4 3 2 2 1 1 1 1 2 1 2 2 2 2 2 2 0 2 2 2 3 6 5 3 4 4 4 3 3 4 5 6
Wind_Direction
166 164 164 161 159 154 147 143 141 148 145 140 129 119 120 120 120 122 120 117 115 112 112 110 109 107 103 102 101 100 98 97 97 101 105 107 110 111 110 109 106 102 101 105 106 104 104 104 104 103 101 101 99 95 93 92 88 85 82 82 81 81 83 83 80 77 75 75 74 72 72 71 72 72 73 73 72 69 64 68 71 74 79 77 75
164 163 163 161 159 155 151 149 148 145 137 131 122 115 113 112 113 115 115 116 116 112 112 112 111 108 105 104 103 101 100 97 95 99 104 107 109 110 110 110 107 104 105 106 105 104 103 102 101 101 99 98 95 92 90 88 83 77 75 76 80 82 85 85 82 78 76 76 76 74 71 69 68 67 69 72 76 78 72 76 79 72 73 76 76
163 162 161 159 157 156 154 152 150 143 136 130 124 123 116 111 111 113 113 116 119 116 116 116 115 111 108 106 105 105 103 99 98 101 106 108 110 113 113 112 109 107 107 107 106 106 104 102 100 98 97 94 91 88 88 87 80 73 70 70 75 81 84 85 84 82 80 77 73 71 71 70 67 64 64 67 74 86 87 85 82 75 73 72 77
162 159 158 157 157 157 154 151 148 144 139 132 129 128 121 117 114 113 113 117 123 119 120 120 117 114 111 109 109 111 108 104 104 107 110 111 113 115 115 114 111 109 109 108 108 107 105 103 100 98 96 93 89 86 86 86 81 73 68 66 69 77 82 84 84 83 81 78 72 68 67 67 67 62 57 58 62 69 81 90 86 78 72 66 75
161 158 157 155 156 155 150 147 145 147 142 137 137 132 126 123 118 115 114 118 122 121 121 119 118 118 115 114 114 116 114 110 109 112 116 115 113 114 115 114 113 110 108 108 109 108 105 103 101 100 96 91 88 86 83 83 79 72 67 64 65 72 78 79 79 77 76 74 69 64 61 60 63 61 53 53 56 55 58 69 72 70 71 78 88
160 157 156 153 153 151 148 145 144 150 147 144 144 138 132 128 124 121 118 117 120 122 122 121 121 119 118 118 118 120 118 115 113 114 121 120 111 113 116 115 114 111 109 107 109 109 107 104 102 99 94 89 86 84 81 78 73 68 65 62 62 67 69 68 69 69 69 67 64 60 58 57 58 60 54 48 54 55 52 53 53 56 66 84 97
157 155 154 151 152 151 148 144 146 152 151 151 152 147 142 138 133 129 126 123 121 122 124 124 122 119 119 120 121 123 122 121 116 114 121 124 116 113 114 115 116 113 111 108 108 109 108 106 102 97 92 90 87 83 79 75 70 65 65 63 60 61 60 59 60 60 62 62 62 58 53 52 51 56 57 49 50 55 55 52 47 47 54 68 86
156 155 154 152 151 150 148 146 148 152 154 157 155 151 150 146 140 139 133 127 126 125 126 126 123 121 121 122 124 126 126 123 117 115 120 125 122 116 114 117 119 117 114 111 111 112 111 108 102 99 94 92 89 85 80 75 70 66 64 63 58 55 54 55 56 57 57 56 57 56 51 44 45 53 59 54 49 52 57 58 56 51 50 56 60
155 156 155 153 151 150 149 148 150 152 160 158 151 150 150 150 146 146 140 135 134 129 129 128 125 123 124 125 127 129 127 125 119 116 120 127 128 122 118 122 124 119 116 113 115 115 115 111 105 103 98 93 89 85 81 76 72 66 60 56 52 51 51 51 53 55 56 55 53 52 48 35 36 48 53 52 48 49 55 59 61 62 62 63 58
153 155 155 153 150 148 147 148 152 152 160 157 151 151 149 153 151 150 149 150 145 136 136 134 131 128 128 127 128 129 126 127 122 117 122 130 130 126 122 126 127 120 117 116 116 118 117 112 107 104 100 95 87 80 77 74 71 65 57 51 51 52 51 49 47 48 49 51 50 48 45 32 28 42 48 44 43 45 51 54 57 63 69 74 70
152 155 157 156 153 148 148 152 157 155 162 165 163 163 161 159 155 157 159 159 152 145 147 144 138 133 132 131 131 129 126 128 124 120 127 135 133 129 126 125 126 120 117 116 118 121 119 113 108 104 101 96 86 78 72 69 69 63 56 53 54 53 49 46 43 43 42 43 44 42 41 34 30 41 49 37 33 36 38 42 46 54 61 70 74
153 156 159 160 157 155 159 162 165 163 170 176 178 176 173 170 166 170 165 159 156 154 156 149 141 138 136 134 135 133 129 130 127 126 133 137 135 131 127 126 124 118 116 120 124 124 120 115 109 106 101 93 85 80 75 69 67 63 57 55 53 51 49 44 42 40 40 40 39 38 38 37 34 40 52 43 36 34 28 27 29 39 50 58 65
157 158 162 161 159 163 169 169 173 173 181 187 186 182 180 177 172 177 172 163 162 162 160 154 150 146 141 138 138 137 134 130 127 131 135 136 134 130 128 128 124 119 121 127 130 124 121 116 110 108 98 88 82 79 79 75 70 65 59 54 50 49 47 44 40 38 37 37 37 38 38 39 37 34 41 49 56 49 31 22 17 21 33 46 51
159 159 160 160 161 170 176 175 180 183 192 195 191 189 185 176 170 179 182 177 171 169 165 161 161 154 147 145 142 141 137 130 128 132 135 134 132 129 129 129 127 126 128 129 127 121 118 114 109 104 93 84 77 75 78 78 74 66 59 52 46 44 42 40 38 35 35 35 37 38 39 37 35 32 32 37 58 72 49 27 13 7 11 22 34
162 161 161 164 169 174 180 183 188 191 200 202 201 201 193 185 185 187 190 188 178 175 173 168 167 159 153 152 149 146 141 133 132 136 136 134 131 130 131 133 133 131 126 123 122 118 115 111 106 98 92 84 76 76 78 80 76 65 58 51 43 39 35 34 34 33 32 33 38 39 39 37 34 33 30 29 30 39 28 356 343 337 341 350 2
167 168 168 172 178 179 181 186 192 196 204 207 207 206 202 206 204 194 194 197 185 181 179 172 170 159 154 158 154 147 144 138 137 141 139 136 134 131 132 135 134 127 122 120 120 119 115 110 103 97 93 85 79 82 81 79 74 63 55 49 42 37 33 31 31 32 31 34 40 43 43 42 43 43 42 42 43 43 26 2 340 309 283 292 323
172 176 178 180 183 183 184 190 195 199 207 209 209 206 203 208 210 197 197 202 192 184 179 172 170 158 153 159 156 149 147 142 140 145 142 138 136 134 134 133 129 123 121 121 121 122 117 110 102 98 93 88 88 87 81 76 70 60 50 44 40 36 32 31 30 31 33 36 43 49 50 50 54 57 57 57 58 58 53 44 31 11 322 292 302
175 180 182 183 184 185 187 192 200 204 208 209 210 210 206 209 210 198 196 202 195 184 176 170 167 158 153 153 154 152 149 143 142 145 141 138 138 138 139 136 132 124 123 123 125 124 115 108 103 100 97 95 95 88 79 71 61 53 45 40 39 36 32 31 31 34 36 40 48 54 57 59 63 64 63 62 61 59 58 55 46 39 38 37 31
175 180 180 180 183 188 190 192 199 202 202 204 205 205 205 208 207 197 195 195 189 182 174 170 165 159 155 149 150 153 151 145 142 143 138 136 137 142 141 139 136 129 127 127 125 120 113 109 105 102 100 98 94 85 76 66 55 47 41 40 39 33 30 31 34 39 43 48 54 60 63 65 67 65 63 63 62 60 58 55 48 40 41 51 53
174 180 177 177 182 194 201 202 204 203 202 200 198 197 196 200 199 194 192 187 183 180 173 165 160 159 156 151 152 154 153 147 142 141 136 134 138 141 135 132 132 130 128 124 120 115 111 107 105 101 99 96 91 81 71 62 53 43 36 36 35 28 27 31 38 46 53 56 59 64 68 69 67 64 61 61 62 59 56 54 50 42 38 45 46
172 180 183 183 188 201 207 211 212 210 210 197 188 191 188 187 187 189 187 182 181 177 170 163 158 158 157 154 155 154 153 149 143 140 136 134 136 132 128 127 128 128 124 119 116 112 109 106 103 99 95 91 84 75 63 54 45 37 31 29 27 25 29 35 46 56 60 62 65 69 70 67 64 62 58 57 58 57 55 53 51 47 38 32 35
173 182 193 193 195 206 206 209 211 210 209 190 182 190 183 172 175 185 180 177 178 172 173 166 156 157 159 155 153 153 154 151 144 139 134 131 128 125 125 126 126 124 120 116 113 111 109 107 102 97 92 85 76 64 50 43 36 30 28 27 25 28 35 45 57 63 66 67 70 71 69 65 62 60 57 54 53 53 53 52 56 58 40 22 22
187 189 192 190 193 198 198 202 203 203 199 182 183 187 175 164 170 180 175 174 172 168 175 163 149 154 158 154 152 152 153 149 143 138 133 129 126 125 126 126 124 121 118 115 113 113 111 108 102 94 87 76 64 47 35 32 29 27 28 31 33 39 48 59 65 68 72 74 74 71 69 66 63 60 57 56 54 53 52 52 63 72 53 26 17
192 189 184 183 182 184 188 192 190 190 185 177 185 181 162 159 165 166 166 169 163 161 169 158 148 154 156 153 153 152 152 148 143 139 134 132 128 127 127 125 123 121 119 118 117 116 112 108 100 91 82 67 52 35 28 29 28 30 33 39 49 58 65 69 71 74 76 76 74 71 68 66 64 62 58 57 55 53 52 53 66 81 74 38 21
188 184 179 177 173 174 180 180 175 175 174 174 183 174 158 157 158 156 156 157 154 156 159 156 153 155 156 154 154 153 152 149 144 140 135 131 128 127 127 125 125 124 123 123 121 117 112 107 98 89 79 64 57 56 54 44 39 39 43 57 71 74 74 75 77 77 77 75 73 70 68 66 64 62 58 56 54 52 50 51 63 75 82 57 25
186 180 175 172 169 168 170 170 165 165 167 168 169 162 157 155 152 154 153 150 151 154 154 155 155 156 158 156 155 155 154 150 143 137 133 130 129 130 129 126 127 128 129 128 124 120 113 106 96 87 75 64 67 74 69 59 58 58 62 79 85 80 76 76 77 77 75 74 71 69 66 64 62 60 58 55 53 52 51 52 59 65 72 75 36
183 175 170 168 163 159 160 161 158 161 162 159 155 151 150 149 147 151 152 150 151 153 152 154 156 158 159 156 155 155 153 147 139 134 133 133 132 133 131 129 130 135 136 134 129 124 116 107 98 89 77 72 75 76 72 66 67 68 74 90 90 79 74 74 74 73 70 68 67 65 63 61 60 58 56 54 53 52 52 56 62 67 72 78 74
182 173 167 162 155 153 153 150 150 152 153 152 149 146 145 145 145 148 150 151 152 152 152 154 157 158 156 154 153 151 148 142 136 136 137 135 134 135 135 135 137 140 142 140 137 130 120 112 104 94 83 80 78 75 71 68 69 71 77 90 88 73 68 70 70 69 65 63 62 61 60 59 58 57 55 53 52 51 52 55 61 67 72 73 70
181 170 162 156 149 149 149 144 144 146 147 149 148 145 143 143 144 146 148 149 149 149 151 154 157 155 151 148 146 146 144 140 138 139 139 137 138 139 138 138 141 144 147 146 143 136 127 121 114 106 94 82 76 71 67 66 70 76 81 85 80 68 66 68 68 67 63 61 59 58 58 58 58 56 54 52 52 52 51 52 56 60 65 66 65
177 171 160 152 146 146 147 143 142 144 147 148 146 142 139 141 143 145 146 145 146 147 149 152 152 148 144 142 142 143 141 138 139 140 141 141 142 142 139 139 142 148 150 149 146 140 137 135 130 119 98 77 66 62 58 62 70 79 85 81 76 69 67 67 66 64 60 58 57 58 57 57 58 56 54 53 53 53 52 53 53 54 56 59 60
177 172 160 149 145 144 145 145 143 144 148 147 145 142 138 141 142 142 143 143 143 144 146 147 145 143 141 142 141 141 139 137 139 142 144 144 145 145 144 145 149 153 153 152 151 146 146 147 144 125 93 74 60 55 54 61 70 78 83 80 77 72 67 66 63 60 56 55 55 57 59 58 58 57 56 56 56 56 55 55 54 52 52 53 55
179 172 162 151 146 145 144 145 147 147 146 145 143 142 141 143 143 142 141 142 142 142 143 143 142 140 140 140 139 137 136 137 141 144 145 146 149 151 154 158 160 161 159 160 162 158 159 159 155 128 90 68 51 43 40 45 68 82 86 80 77 72 67 64 60 57 53 51 52 56 62 62 59 59 59 60 60 60 58 57 56 54 52 51 51
177 172 168 156 148 146 146 146 148 147 144 141 141 141 142 144 145 143 141 142 141 140 141 141 139 137 136 136 136 136 136 138 142 145 148 150 155 159 163 167 169 170 171 174 179 178 177 177 173 152 87 50 36 21 10 23 66 89 90 81 74 67 62 60 58 57 53 52 53 56 65 67 62 60 63 66 66 64 62 60 58 56 54 51 49
179 176 175 164 154 149 149 149 148 146 143 140 140 139 141 144 145 143 142 142 141 140 140 139 138 136 135 136 136 138 140 143 147 150 154 157 159 161 162 165 168 174 181 188 194 197 197 199 203 204 137 30 16 359 355 39 94 95 86 73 66 62 59 60 59 60 57 55 56 57 63 67 65 63 66 71 71 69 66 63 60 57 54 52 49
185 181 178 171 160 153 152 151 148 146 143 139 138 139 139 141 142 141 141 141 142 142 141 141 141 138 137 138 140 143 146 149 152 156 160 162 162 161 162 167 174 179 186 195 205 212 216 216 214 210 228 358 356 347 348 57 120 102 82 68 64 63 63 65 65 65 62 60 59 59 59 62 66 69 70 74 74 70 67 63 60 56 53 51 49
189 185 181 177 165 157 155 153 151 146 141 137 137 138 137 138 139 139 139 141 143 143 144 145 144 142 142 143 146 149 152 154 157 161 165 167 168 168 171 177 181 179 179 186 200 211 219 220 218 217 244 331 343 340 341 17 146 123 95 75 66 62 63 68 72 72 69 65 62 60 59 60 66 74 76 75 71 66 63 60 57 54 52 50 49
190 189 186 182 170 161 157 156 154 147 142 140 139 138 138 139 139 139 140 141 143 145 147 149 148 148 149 149 151 152 155 157 161 166 169 172 172 173 176 171 165 161 161 169 184 200 211 215 222 229 250 318 335 320 319 346 145 134 99 75 66 63 65 71 78 81 77 71 65 60 59 59 64 75 80 71 60 55 54 53 52 51 50 49 47
190 191 190 185 175 166 159 157 156 151 147 145 143 143 142 144 144 143 145 144 145 148 150 153 154 155 155 155 156 157 158 159 162 168 172 173 171 169 169 161 155 156 157 163 178 194 205 212 223 234 259 309 330 310 302 300 180 151 86 68 69 67 68 70 78 86 82 75 67 62 60 59 63 72 77 63 50 45 44 44 45 47 48 48 46
188 190 189 185 179 172 163 159 159 156 153 151 150 151 151 152 152 150 151 151 151 153 155 158 159 160 159 159 161 162 163 161 163 167 168 167 167 167 165 162 163 161 157 169 190 197 205 212 221 232 264 311 326 310 294 265 208 189 114 55 60 62 67 68 73 80 78 70 63 60 62 64 65 67 66 57 48 44 42 41 42 44 45 47 47
188 190 187 185 183 177 170 164 163 162 160 158 158 159 159 157 157 158 158 157 158 158 159 162 163 165 164 165 167 167 166 165 166 167 165 163 166 170 168 164 161 153 161 192 193 197 204 210 218 225 251 304 312 312 299 233 199 180 198 315 336 351 62 65 62 62 59 58 54 52 59 64 66 63 61 59 55 49 44 42 42 44 45 45 47
189 192 189 186 186 182 176 171 168 168 168 166 165 167 167 163 162 163 163 162 162 162 163 166 169 171 172 174 173 172 170 170 172 175 173 169 169 174 171 165 161 166 205 196 190 202 200 205 217 224 240 278 287 307 313 201 194 184 263 287 282 262 242 250 25 45 51 55 52 49 49 53 57 55 54 56 55 50 45 42 42 44 45 45 47
188 192 191 187 187 186 181 176 174 174 174 174 172 173 174 171 167 166 168 170 169 166 167 168 172 175 177 178 179 180 177 174 176 180 181 174 169 172 170 168 176 209 215 193 202 213 199 197 208 222 240 262 275 297 4 184 213 229 285 311 266 245 239 231 308 24 69 73 62 50 40 33 36 36 36 42 44 42 39 38 39 42 43 44 46
188 191 193 191 190 189 185 182 181 179 178 180 179 179 180 176 172 172 173 176 176 173 172 173 175 177 179 181 183 183 180 177 177 178 179 175 173 178 177 183 200 211 209 201 209 215 198 189 196 215 244 257 272 280 251 279 248 229 300 4 21 313 287 251 296 313 21 58 53 42 21 3 12 19 19 26 30 28 29 32 35 38 40 42 45
190 191 193 195 193 190 188 187 186 184 183 185 185 182 181 176 172 172 172 174 176 176 176 178 180 182 183 184 182 179 180 183 182 182 185 185 190 193 193 203 210 212 212 207 208 206 188 182 189 206 252 271 278 286 301 328 315 221 326 9 46 344 304 274 291 289 294 304 277 265 305 314 347 9 15 21 20 19 22 25 28 33 38 40 43
191 191 193 195 194 192 190 190 190 188 188 189 187 184 181 177 172 171 171 170 173 178 179 180 183 186 186 184 181 180 184 188 186 188 193 197 201 201 203 209 214 221 219 206 205 202 186 179 185 196 235 269 62 14 345 357 25 101 356 3 15 328 287 269 283 279 284 290 268 233 248 281 334 3 8 13 17 19 23 24 24 29 34 38 40
195 193 194 195 194 194 192 192 193 192 192 191 189 188 185 181 177 176 177 175 178 183 185 184 186 187 186 187 189 191 192 192 192 192 196 204 206 208 210 210 214 222 217 206 204 201 190 187 186 186 198 155 95 58 39 58 73 57 30 36 39 348 308 273 286 290 294 292 253 218 247 277 336 1 359 4 16 27 28 27 24 24 28 34 37
199 195 195 195 195 196 195 194 194 196 196 194 193 193 190 186 183 182 183 183 185 187 189 189 190 191 191 194 198 200 200 200 199 199 202 209 212 214 212 209 213 218 213 206 206 202 197 197 192 185 187 156 114 93 124 98 80 68 49 57 73 27 17 338 319 318 315 307 238 228 267 300 346 351 350 359 17 28 28 28 27 25 24 28 32
202 198 196 196 196 198 198 197 196 197 199 198 198 197 194 190 189 189 191 193 193 192 193 194 195 197 198 200 202 204 205 206 206 207 208 211 215 216 213 212 216 219 213 206 211 208 201 204 201 197 197 166 137 135 152 144 126 98 65 75 93 73 76 78 57 358 333 325 275 259 269 344 359 0 6 19 28 30 26 28 30 28 26 26 28
204 203 200 197 195 196 198 199 199 199 200 200 201 200 199 196 196 197 197 199 200 200 203 204 203 203 202 203 205 205 206 210 212 211 210 211 214 216 216 215 219 222 215 212 219 212 204 206 209 210 213 196 173 161 157 164 165 145 100 106 113 92 80 75 79 65 33 14 318 287 272 332 344 351 9 16 29 42 40 37 39 36 32 28 25
207 206 204 201 196 194 195 198 200 202 202 202 203 204 204 204 206 207 205 204 204 206 210 210 209 207 204 205 206 206 207 211 213 212 212 212 215 220 219 214 217 221 217 221 228 218 209 210 214 222 229 224 216 203 186 176 170 170 184 171 166 150 88 71 81 77 67 40 338 271 244 308 337 351 0 3 25 47 40 33 40 37 29 23 18
207 206 206 205 200 195 195 196 199 203 204 205 205 206 208 211 213 215 217 216 216 216 215 212 211 210 206 206 208 207 208 211 213 213 213 214 216 220 221 216 218 219 218 228 232 222 218 217 218 227 237 237 231 227 223 209 190 186 209 213 207 198 143 83 89 82 60 41 30 187 223 306 345 359 4 4 5 8 4 3 10 10 8 8 8